weather.gov     
National Weather Service

Regional Weather Roundup
NWS Homepage
This page is being discontinued on March 12, 2014.
The same data is available at this site. Please update your bookmarks.
Thank you, and we apologize for the inconvenience.
Please send an email to SR-SRH.Webmaster@noaa.gov with any concerns.


Current Version
Previous Version:    01  02  03  04  05  06  07  08  09  10  11  12  13  14  15  16  17  18  19  20  21  22  23  24  25  26  27  28  29  30  
   31  32  33  34  35  36  37  38  39  40  41  42  43  44  45  46  47  48  49  50  51  52  53  54  55  56  57  58  59  60  
[Printable]
419
ASUS44 KEWX 010810
RWRTX
SOUTH TEXAS REGIONAL WEATHER ROUNDUP
NATIONAL WEATHER SERVICE AUSTIN/SAN ANTONIO TX
300 AM CDT WED OCT 01 2014

NOTE: "FAIR" INDICATED FEW OR NO CLOUDS BELOW 12,000 FEET WITH NO
SIGNIFICANT WEATHER AND/OR OBSTRUCTIONS TO VISIBILITY.

* - THESE STATIONS ARE NOT NWS OR FAA STATIONS...AND ARE NOT SUBJECT
    TO NWS AND FAA QUALITY CONTROL.

TXZ171-172-183>190-010900-
TEXAS HILL COUNTRY AND EDWARDS PLATEAU

CITY           SKY/WX    TMP DP  RH WIND       PRES   REMARKS
JUNCTION       CLEAR     71  64  78 CALM      29.83S
*LLANO         CLEAR     72  66  83 CALM      29.85S
BURNET         CLOUDY    74  70  87 S7        29.85R
*HORSESHOE BAY CLEAR     74  69  84 S8        29.81S
*KERRVILLE     CLOUDY    72  69  91 S9        29.86R
*FREDERICKSBRG CLOUDY    72  69  88 S5        29.85S
*ROCKSPRINGS   CLEAR     70  66  88 SE9       29.88S
*BOERNE STAGE  CLOUDY    73  70  88 S6        29.85S
*CASTROVILLE   CLOUDY    75  73  92 SE6       29.83R
HONDO          CLOUDY    75  72  90 SE8       29.83S
*UVALDE        CLEAR     73  72  96 E3        29.82R
DEL RIO        CLEAR     73  67  81 E9        29.78S
LAUGHLIN AFB   CLEAR     71  67  87 SE7       29.80R
CARRIZO SPRGS  CLEAR     72  72 100 SE3       29.78S
$$

TXZ173-191>194-202-209-217>225-228-010900-
CENTRAL AND SOUTH CENTRAL TEXAS

CITY           SKY/WX    TMP DP  RH WIND       PRES   REMARKS
GEORGETOWN     CLOUDY    75  72  88 S12       29.82R
AUSTIN/BERGSTM MOCLDY    74  73  97 S6        29.81S
AUSTIN/MABRY   CLOUDY    76  72  87 VRB5      29.82S
*AUSTIN/EXEC   CLOUDY    73  72  94 S5        29.82S
*LAGO VISTA    CLOUDY    75  71  88 S7        29.84R
SAN MARCOS     CLOUDY    75  70  83 S8        29.83R
NEW BRAUNFELS  CLOUDY    76  72  87 S9        29.81R
RANDOLPH AFB   CLOUDY    76  72  88 S9        29.82S
PT SAN ANTONIO CLOUDY    75  73  93 SE7       29.81R
SAN ANTONIO    CLOUDY    77  73  87 S12       29.82S
STINSON FIELD  CLOUDY    75  73  93 SE6       29.80R
*PLEASANTON    CLOUDY    75  73  92 E3        29.81S
*LA GRANGE     CLOUDY    76  75  97 S3        29.80R FOG
*GIDDINGS      CLOUDY    74  72  93 S3        29.85S
*GONZALES      CLOUDY    77  76  97 S6        29.80S
$$

TXZ163>164-176>182-195>201-210>213-226-227-235-010900-
SOUTHEAST TEXAS

CITY           SKY/WX    TMP DP  RH WIND       PRES   REMARKS
COLLEGE STN    MOCLDY    74  72  93 S3        29.81S
*BRYAN         MOCLDY   N/A N/A N/A SE3       29.81S
*CALDWELL      CLOUDY    73  73 100 CALM      29.85R
*CROCKETT      PTCLDY    75  75 100 CALM      29.85S FOG
*BRENHAM       CLOUDY    75  73  95 CALM      29.82S
HUNTSVILLE     CLEAR     76  73  91 S5        29.82S
CONROE         PTCLDY    72  71  97 CALM      29.82S
HOUSTON BUSH   MOCLDY    75  75 100 CALM      29.81R
HOUSTON HOBBY  MOCLDY    78  76  93 CALM      29.80R
*HOUSTON SW AP PTCLDY    65  65 100 CALM      29.81S FOG
PEARLAND       PTCLDY    78  76  93 CALM      29.82R
HOUSTON HOOKS  MOCLDY    74  73  97 CALM      29.81S
ELLINGTON FLD  NOT AVBL
SUGAR LAND     PTCLDY    77  75  93 CALM      29.80S
*HOUSTON EXEC  PTCLDY    75  75 100 SE5       29.82S
*CLEVELAND MUN CLOUDY    74  73  99 CALM      29.83S FOG
*WHARTON       FOG       72  72  98 CALM      29.81S VSB 1/2
*COLUMBUS      NOT AVBL
$$

TXZ214>216-236>238-010900-
THE UPPER TEXAS COAST

CITY           SKY/WX    TMP DP  RH WIND       PRES   REMARKS
*ORANGE        PTCLDY   N/A N/A N/A E5        29.83F
PORT ARTHUR    MOCLDY    79  76  90 SE6       29.81S
GALVESTON      CLEAR     81  78  91 S10       29.81S
ANGLETON       CLEAR     77  76  96 CALM      29.80S
*BAY CITY      PTCLDY   N/A N/A N/A CALM      29.80S FOG
PALACIOS       CLEAR     77  75  93 S3        29.79S
$$

TXZ229>234-239>247-010900-
TEXAS COASTAL BEND AND RIO GRANDE PLAINS

CITY           SKY/WX    TMP DP  RH WIND       PRES   REMARKS
VICTORIA       FOG       75  74  96 E3        29.80S VSB 1/4
*BEEVILLE      FOG       73  73 100 E3        29.80S VSB 1/4
ROCKPORT       CLEAR     79  77  94 SE6       29.78R
*PORT ARANSAS  PTCLDY    80  76  89 S7        29.78S
*PORT LAVACA   CLEAR     76  75  97 SE3       29.79S
*INGLESIDE     CLEAR     77  75  94 S6        29.78S
CORPUS CHRISTI MOCLDY    76  75  97 S5        29.78S
CORPUS NAS     CLEAR    N/A N/A N/A S7        29.78S
*ROBSTOWN      NOT AVBL
ALICE          FOG       74  73  97 CALM      29.78S VSB 1/4
KINGSVILLE NAS NOT AVBL
COTULLA        CLEAR     75  72  90 SE7       29.79S
*FAITH RANCH   PTCLDY    75  72  88 SE6       29.79S
LAREDO         CLEAR     77  77 100 SE7       29.81R
$$

TXZ248>255-010900-
DEEP SOUTH TEXAS

CITY           SKY/WX    TMP DP  RH WIND       PRES   REMARKS
BROWNSVILLE    CLEAR     77  77 100 S5        29.79F
PORT ISABEL    CLEAR     78  76  93 S7        29.78F FOG
*SOUTH PADRE   PTCLDY    81  77  89 CALM      29.78F
HARLINGEN      CLEAR     75  74  96 S6        29.78S
*HEBBRONVILLE  FOG       75  73  96 S5        29.80F VSB 1
MCALLEN        CLEAR     77  75  93 S6        29.79S
*WESLACO       CLEAR     76  73  91 S6        29.78S
FALFURRIAS     CLEAR     74  73  97 S5        29.78S
EDINBURG       CLEAR     77  74  90 S3        29.79R
*ZAPATA        CLEAR     76  75  97 SE5       29.77F
$$

TXZ213>215-236>238-242>244-246-247-251-254-255-010900-
CMAN STATIONS

STATION/POSITION TIME  TEMP    WIND        PRES    WAVE
                       AIR SEA DIR/SP/G            HT/PER
                 (UTC) (F)     (DEG/KT/KT) (MB)    (FT/S)
SABINE PASS      0800   80 81  170/  5/  7 1009.7
SEA RIM ST PARK  0800   80     150/  7/  9 1010.0
NORTH JETTY/GLS  0800   81 81  190/ 10/ 11   N/A
EAGLE POINT      0800   81 82  170/ 11/ 13 1009.1
MORGANS POINT    0800   80     140/  2/  5 1009.1
MISSION/ARANSAS  0700          160/  5     1010.0
PORT O`CONNOR    0800          160/  6/  7   N/A
PORT ARANSAS     0800   81 81  160/ 10/ 10 1008.9
MALAQUITE BEACH  0800   81 81  160/ 10/ 11 1007.9
BAFFIN BAY       0800   81 84  170/ 10/ 12 1008.5
PORT ISABEL      0800   80 82  170/  4/ 10 1008.9
$$

GMZ080-GMZ150>470-010900-
OFFSHORE BUOY REPORTS

STATION/POSITION TIME  TEMP    WIND        PRES    WAVE
                       AIR SEA DIR/SP/G            HT/PER
                 (UTC) (F)     (DEG/KT/KT) (MB)    (FT/S)
20 E GALVESTON   0800   81 81  150/ 12/ 14 1008.8    2/ 4
90 E PT ARANSAS  0800   83 83  190/ 10/ 12 1009.1    2/ 6
35 NE PT MANSFLD 0800   82 83  180/ 14/ 16 1008.0    2/ 3
200 E PT ISABEL  0800   83 84  180/ 14/ 16 1009.8    2/ 3
$$




U.S. Dept. of Commerce
NOAA National Weather Service
1325 East West Highway
Silver Spring, MD 20910
E-mail: w-nws.webmaster@noaa.gov
Page last modified: May 16, 2007
NATIONAL WEATHER SERVICE: for Safety, for Work, for Fun - FOR LIFE